Location: Chiroubles
(46.1812°N, 4.6660°E)
Time: 17:05:23
(UTC+00:00)

Tsikada Rocket - Pass Details

Date: 15 August 2020
Orbit: 957 x 1010 km, 82.9° (Epoch: 22 September)

Event Time Altitude Azimuth Distance (km) Brightness Sun altitude
Rises 21:28:35 0° 354° (N) 3,726 8.0 -22.7°
Reaches altitude 10° 21:31:11 10° 358° (N) 2,766 7.1 -22.9°
Maximum altitude 21:37:26 57° 77° (ENE) 1,144 4.2 -23.5°
Enters shadow 21:38:48 48° 122° (ESE) 1,268 4.2 -23.7°
